THAICOM 6

Last updated on Sat Jul 05 2025 00:02:45 GMT+0000 (Coordinated Universal Time)

1 39500U 14002A 25185.57892241 -.00000108 00000+0 00000+0 0 9991 2 39500 0.0704 106.4016 0004369 24.1813 79.1845 1.00272388 41975
UTC large
Height (km)
Speed (km/s)
/
Latitude / Longitude
Inclination (degrees)
Orbital Period (minutes)
Azimuth
Elevation
Range (km)
Doppler Factor

Next 0 passes for location: London (51.5072 / 0.1276)

Sorry there are no passes over London.